FENGYUN 1C DEB

Satellite information

Favourite Embed

Satellite Type and Status

DEBRISIN ORBIT

Key statistics

Satellite FENGYUN 1C DEB at a glance.

Uptime

9661

Days in orbit

Revolutions

≈ 14.4

Per day

Orbit

SSO

Sun Synchronous Orbit

Inclination

98.9

Latest

Satellite identification and parameters

Extended collection of information and parameters for FENGYUN 1C DEB.

Object identification

Identified? True

Debris? True

Object name: FENGYUN 1C DEB

International designator: 1999-025AGM

Object number (NORAD): 30474

Object ID (CCSDS): 30474

Country: PEOPLES REPUBLIC OF CHINA (PRC)

Current information (Y/N): Y

RCS size: SMALL

Orbital parameters

Period: 100.225 minutes

Inclination: 98.9313 deg

SMA: 7147.313 km

Apoapsis: 788.813 km

Periapsis: 749.543 km

RAAN: 9.8348 deg

Eccentricy: 0.00274722

Argument of periapsis: 163.3909 deg

Mean anomaly: 277.2278 deg

Mean motion: 14.36774357 rev/day

Mean motion (dot): 0.00011399 rev/day2

B* drag term: 0.0038560396 1/REarth

Two-line elements (TLE)

Creation date: Oct. 20, 2025, 2:10 a.m.

Reference frame: TEME

Reference center: EARTH

Epoch: Oct. 19, 2025, 11:27 p.m. UTC

TLE line 0: 0 FENGYUN 1C DEB

TLE line 1: 1 30474U 99025AGM 25292.97721674 .00011399 00000-0 38560-2 0 9993

TLE line 2: 2 30474 98.9313 9.8348 0027472 163.3909 277.2278 14.36774357966214

Live tracking on map

Real-time ground track for satellite FENGYUN 1C DEB.

In-orbit conjunctions

A list of the most updated potential collisions computed for object FENGYUN 1C DEB.

Target Orbit TCA Probability of collision Miss distance Type
CZ-6A DEB LEO 2025-07-09 05:52:58 0.0001810148 294.0 (m) DEBRIS
CZ-6A DEB LEO 2025-03-05 03:54:14 0.0001116464 298.0 (m) DEBRIS
COSMOS 1452 LEO 2025-02-24 13:40:58 0.000111826 474.0 (m) PAYLOAD
SCOUT G-1 R/B LEO 2025-02-18 18:31:13 0.002215314 64.0 (m) ROCKET BODY

Associated space launch

Chinese polar orbiting meteorological satellite

FENGYUN 1C DEB was lifted into orbit during the mission ‘Long March 4B | Feng Yun 1C’, on board a Long March 4B space rocket.

The launch took place on May 10, 1999, 1:33 a.m. from Launch Complex 7.

For more information about the launch, click the button.

Launch to space Long March 4B | Feng Yun 1C
Long March 4B | Feng Yun 1C

Agency: N/A

Status: Launch Successful

Launch date: May 10, 1999, 1:33 a.m. UTC

Rocket: Long March 4B

Launch pad: Launch Complex 7

Location: Taiyuan Satellite Launch Center, People's Republic of China

...

Latest news about this satellite

There are no fresh news available about this satellite. Check back as we update our databases every day.


Newsletter sign-up

Weekly statistics, charts and insights to help you stay on top of the space industry.